[[{"header":{"parameterUnit":"m.s-1","parameterCategory":1,"la1":30.2991,"la2":30.254,"lo1":-89.0895,"lo2":-89.0444,"dy":0.0017,"dx":0.0017,"nx":28,"ny":28,"refTime":"2023-06-21T21:00:00:Z","depth":0,"parameterNumber":2,"parameterNumberName":"U-component_of_WINDS"},"data":[0,0,0,0,0,0,0,0,0,0,0,0,0,0,0,0,0,0,0,0,0,0,0,0,0,0,0,0,0,0,0,0,0,0,0,0,0,0,0,0,0,0,0,0,0,0,0,0,0,0,0,0,0,0,0,0,0,0,1.9448,1.9448,0,1.9455,1.9455,1.9455,1.9414,1.9412,1.9411,1.941,1.9417,1.9419,1.942,0,0,0,0,0,0,0,0,0,0,0,0,0,1.94,1.9401,1.9448,1.9448,1.9448,1.9455,1.9455,1.9455,1.9414,1.9412,1.9411,1.941,1.9417,1.9419,1.942,0,0,0,0,0,0,0,0,0,0,0,0,0,1.9415,1.9401,1.9448,1.9428,1.9426,1.9455,1.9455,1.9455,1.9414,1.9412,1.941,1.9409,1.9416,1.9418,1.942,1.9468,0,0,1.9426,1.9427,0,0,0,0,0,0,0,0,1.9415,1.9417,1.9431,1.943,1.9428,1.9432,1.9441,1.9459,1.9415,1.9419,1.941,1.9408,1.9424,1.9425,1.943,1.9468,1.9469,1.9426,1.9428,1.9428,1.9429,0,0,0,0,0,0,0,1.9414,1.9417,1.9451,1.9431,1.9429,1.942,1.942,1.9444,1.9431,1.9418,1.9415,1.9417,1.9422,1.9428,1.943,1.9469,1.9426,1.9428,1.9429,1.943,1.955,1.9552,0,0,0,0,0,0,1.9415,1.9416,1.945,1.9451,1.9417,1.9422,1.9422,1.9432,1.9431,1.9429,1.9418,1.9415,1.9426,1.9428,1.943,1.9488,1.9428,1.943,1.9431,1.9548,1.9551,1.9553,0,0,0,0,0,0,1.9414,1.9418,1.945,1.9433,1.9436,1.9425,1.9436,1.9433,1.9439,1.9431,1.9428,1.9427,1.9424,1.9427,1.946,1.9488,1.9431,1.9433,1.9546,1.9549,1.9552,1.9604,0,0,0,0,0,0,1.9413,1.9418,1.9436,1.9433,1.9437,1.9479,1.9438,1.9435,1.9443,1.9438,1.9438,1.9436,1.9423,1.9457,1.9462,1.949,1.9434,1.9544,1.9547,1.9551,1.96,1.9609,1.9616,0,0,0,0,0,1.9411,1.9449,1.9437,1.9441,1.9458,1.9481,1.9483,1.9467,1.9445,1.9463,1.9458,1.9436,1.9484,1.9461,1.9466,1.9495,1.9542,1.9546,1.9551,1.9596,1.9607,1.9616,0,0,0,0,0,0,1.9454,1.9448,1.9434,1.9473,1.9478,1.9474,1.9496,1.9479,1.949,1.9485,1.9466,1.9466,1.9503,1.9501,1.9476,1.9543,1.9509,1.9515,1.9542,1.9552,1.956,1.956,1.9436,0,0,0,0,0,1.9468,1.9486,1.948,1.9515,1.9518,1.9507,1.9516,1.9504,1.9508,1.951,1.9507,1.9513,1.9529,1.954,1.9555,1.9599,1.96,1.9622,1.963,1.9637,1.9642,1.9669,1.968,1.9568,1.9568,1.9568,0,0,1.9497,1.9496,1.9509,1.9523,1.9526,1.9547,1.9509,1.9531,1.9547,1.9513,1.9545,1.9543,1.9548,1.9588,1.9605,1.9588,1.9674,1.9643,1.9648,1.965,1.9675,1.9686,1.9695,1.9571,1.9571,1.957,0,0,1.956,1.9561,1.9591,1.9595,1.96,1.9592,1.96,1.9599,1.9597,1.9628,1.9605,1.9623,1.9651,1.9657,1.9663,1.9733,1.9714,1.9738,1.978,1.9807,1.9816,1.9824,1.9851,1.9861,1.9743,1.9743,1.9743,0,1.9596,1.9625,1.9608,1.9634,1.9642,1.9614,1.9646,1.965,1.9659,1.9666,1.9647,1.9684,1.9685,1.9727,1.9745,1.975,1.9759,1.9738,1.9816,1.9823,1.983,1.9856,1.9866,1.9746,1.9746,1.9746,1.9745,0,1.967,1.9691,1.9715,1.9726,1.9737,1.9765,1.9754,1.9767,1.9755,1.975,1.9784,1.9785,1.9801,1.9809,1.9797,1.9851,1.9841,1.9819,1.9785,1.9845,1.9869,1.9878,1.9751,1.975,1.9749,1.9748,0,0,1.976,1.9763,1.9772,1.9779,1.9783,1.98,1.9828,1.9844,1.9857,1.9865,1.9889,1.9915,1.9896,1.9904,1.9892,1.9915,1.9974,1.9891,1.9891,1.9908,2.0037,2.0055,2.0066,1.9961,1.9963,1.9964,2.0037,0,1.9824,1.9872,1.9859,1.9907,1.9929,1.9903,1.9928,1.9935,1.9932,1.995,1.9946,1.9966,1.9938,1.9943,1.9964,1.9962,2.0,1.9956,1.9985,1.9987,1.9987,2.0078,2.0096,2.0165,2.0046,2.0048,2.0049,0,1.9905,1.9918,1.9969,1.9973,1.9982,2.0004,2.002,2.0036,2.0044,2.004,2.0051,2.0035,2.0065,2.003,2.0072,2.0043,2.0054,2.0055,2.0057,2.0061,2.0023,2.0086,2.0187,2.0198,2.0063,2.0062,2.0061,0,1.9968,1.9998,2.0034,2.0039,2.0044,2.0062,2.0064,2.007,2.0082,2.0096,2.0103,2.012,2.013,2.0144,2.0134,2.0109,2.0178,2.0142,2.0178,2.0178,2.0194,2.0194,2.03,2.0198,2.0198,2.0198,2.0198,0,2.0042,2.0075,2.0063,2.0085,2.0122,2.0107,2.0144,2.0144,2.015,2.0173,2.0152,2.0173,2.0158,2.0179,2.0172,2.0209,2.0213,2.0212,2.021,2.0215,2.0216,2.0223,2.0219,2.0201,2.02,2.02,2.0199,0,2.012,2.0112,2.015,2.0153,2.0154,2.0182,2.0184,2.0206,2.0202,2.0231,2.0237,2.0231,2.0255,2.0247,2.0271,2.0267,2.0315,2.0306,2.0313,2.0312,2.0349,2.0346,2.0465,2.0481,2.0368,2.0369,2.0369,0,2.0168,2.0194,2.02,2.0214,2.0219,2.0241,2.0254,2.0241,2.0255,2.0267,2.0288,2.031,2.0327,2.0367,2.0366,2.0386,2.0378,2.0418,2.0381,2.0386,2.0382,2.0381,2.0385,2.0426,2.0428,2.0429,2.0429,0,2.0257,2.0253,2.0271,2.029,2.0306,2.032,2.0331,2.0344,2.0333,2.035,2.0375,2.0388,2.0415,2.0439,2.0457,2.0461,2.0445,2.0441,2.0451,2.0457,2.0462,2.0463,2.0336,2.0439,2.0438,2.0437,2.0437,2.0436,2.0323,2.0345,2.0354,2.0377,2.0385,2.0397,2.0418,2.0418,2.0439,2.046,2.0451,2.0481,2.0491,2.0514,2.0521,2.0545,2.0529,2.0543,2.0546,2.0551,2.0557,2.0457,2.0548,2.0547,2.0547,2.0547,2.0547,0,2.0412,2.0417,2.0438,2.0457,2.0475,2.0458,2.0471,2.0488,2.0514,2.0525,2.0543,2.0573,2.0597,2.0598,2.062,2.0639,2.0633,2.0646,2.0645,2.0647,2.0568,2.0558,2.0651,2.0651,2.0651,2.0651,2.0651,2.0651,2.0461,2.0499,2.0496,2.0539,2.0544,2.0573,2.0583,2.0595,2.0604,2.0639,2.0658,2.0659,2.0667,2.069,2.0712,2.0712,2.0722,2.0739,2.0736,2.0662,2.0652,2.0642,2.0633,2.0741,2.0741,2.0814,2.0814,2.0815]},{"header":{"parameterUnit":"m.s-1","parameterCategory":1,"la1":30.2991,"la2":30.254,"lo1":-89.0895,"lo2":-89.0444,"dy":0.0017,"dx":0.0017,"nx":28,"ny":28,"refTime":"2023-06-21T21:00:00:Z","depth":0,"parameterNumber":3,"parameterNumberName":"V-component_of_WINDS"},"data":[0,0,0,0,0,0,0,0,0,0,0,0,0,0,0,0,0,0,0,0,0,0,0,0,0,0,0,0,0,0,0,0,0,0,0,0,0,0,0,0,0,0,0,0,0,0,0,0,0,0,0,0,0,0,0,0,0,0,0.3577,0.3577,0,0.3507,0.3506,0.3505,0.3439,0.3438,0.3437,0.3436,0.3363,0.3362,0.3361,0,0,0,0,0,0,0,0,0,0,0,0,0,0.3654,0.3653,0.3577,0.3576,0.3576,0.3507,0.3506,0.3505,0.3439,0.3438,0.3437,0.3436,0.3364,0.3362,0.3361,0,0,0,0,0,0,0,0,0,0,0,0,0,0.3606,0.3652,0.3577,0.3534,0.353,0.3507,0.3506,0.3505,0.3439,0.3438,0.3436,0.3435,0.3364,0.3362,0.3361,0.3375,0,0,0.3355,0.3355,0,0,0,0,0,0,0,0,0.3608,0.3603,0.3541,0.3537,0.3532,0.348,0.3506,0.3461,0.3439,0.3473,0.3436,0.3435,0.3403,0.3398,0.3388,0.3372,0.3368,0.3355,0.3354,0.3353,0.3353,0,0,0,0,0,0,0,0.3612,0.3605,0.3549,0.3541,0.3535,0.3518,0.351,0.3497,0.3446,0.347,0.3465,0.3458,0.34,0.3389,0.3385,0.3367,0.3355,0.3354,0.3353,0.3352,0.3358,0.3359,0,0,0,0,0,0,0.3622,0.3609,0.3552,0.3547,0.3568,0.3518,0.3508,0.3498,0.3446,0.3437,0.3459,0.3455,0.3393,0.3388,0.3383,0.3395,0.3353,0.3352,0.3351,0.3357,0.3358,0.3359,0,0,0,0,0,0,0.3624,0.3617,0.3554,0.3577,0.3567,0.3518,0.3507,0.3497,0.3486,0.3438,0.3428,0.3457,0.3392,0.3385,0.3377,0.3391,0.3351,0.3349,0.3355,0.3357,0.3359,0.342,0,0,0,0,0,0,0.3626,0.3619,0.3624,0.3577,0.3566,0.3551,0.3507,0.3497,0.3484,0.3478,0.3433,0.3425,0.339,0.338,0.3375,0.3388,0.3348,0.3354,0.3356,0.3358,0.3416,0.3423,0.343,0,0,0,0,0,0.3629,0.3644,0.3624,0.3618,0.3572,0.3552,0.3545,0.3505,0.3485,0.3489,0.3458,0.3426,0.3391,0.338,0.3374,0.3386,0.3353,0.3355,0.3358,0.3413,0.3422,0.3429,0,0,0,0,0,0,0.3693,0.3637,0.3615,0.3615,0.3589,0.354,0.3545,0.3516,0.3495,0.349,0.3441,0.3432,0.3429,0.3407,0.3396,0.3397,0.3367,0.3369,0.3411,0.3419,0.3426,0.3431,0.3347,0,0,0,0,0,0.3708,0.3696,0.3647,0.3652,0.364,0.3595,0.3585,0.3556,0.3527,0.3515,0.3483,0.3456,0.3438,0.3427,0.3409,0.3413,0.3402,0.3419,0.3425,0.3431,0.3433,0.3432,0.3439,0.3368,0.3368,0.3368,0,0,0.3737,0.3705,0.37,0.3664,0.364,0.3629,0.3586,0.3576,0.3567,0.3514,0.3504,0.3479,0.3445,0.3443,0.3441,0.3425,0.345,0.3434,0.3439,0.3438,0.3436,0.3442,0.3448,0.337,0.337,0.337,0,0,0.3784,0.3759,0.3759,0.3736,0.3701,0.3671,0.3671,0.3627,0.3609,0.3598,0.3557,0.3546,0.3517,0.3494,0.3479,0.3516,0.3486,0.3512,0.3546,0.3546,0.3552,0.3556,0.3569,0.3574,0.3514,0.3514,0.3514,0,0.3825,0.3806,0.3764,0.3756,0.374,0.3692,0.3692,0.3671,0.3632,0.3622,0.3605,0.3567,0.354,0.3532,0.3541,0.353,0.3528,0.3516,0.3554,0.3558,0.3562,0.3573,0.3578,0.3517,0.3517,0.3516,0.3516,0,0.3857,0.3845,0.385,0.3812,0.3798,0.3794,0.375,0.3741,0.3713,0.3685,0.3674,0.3641,0.3614,0.361,0.3583,0.3597,0.3588,0.3563,0.3533,0.3573,0.3582,0.3587,0.3522,0.3521,0.352,0.3519,0,0,0.3942,0.3881,0.3883,0.3865,0.3822,0.3812,0.3805,0.3779,0.3771,0.3746,0.3738,0.3715,0.3691,0.3674,0.3644,0.3644,0.3675,0.3619,0.3617,0.3629,0.3686,0.3705,0.371,0.3655,0.3655,0.3656,0.3689,0,0.3981,0.3967,0.3928,0.3925,0.3913,0.3866,0.3861,0.3833,0.3807,0.3792,0.3762,0.3745,0.3716,0.3705,0.3703,0.3672,0.3685,0.3669,0.3647,0.3646,0.3656,0.3716,0.3735,0.3768,0.3693,0.3693,0.3694,0,0.4025,0.4001,0.3998,0.3954,0.3947,0.3943,0.3915,0.3902,0.387,0.385,0.3831,0.3798,0.3788,0.376,0.3745,0.3734,0.3723,0.3706,0.3706,0.3702,0.3672,0.3712,0.3777,0.3782,0.3699,0.3699,0.3698,0,0.4086,0.4054,0.4047,0.4033,0.3983,0.398,0.3959,0.3926,0.3912,0.3888,0.3878,0.3854,0.384,0.3821,0.3782,0.3765,0.3771,0.374,0.3753,0.3754,0.3756,0.3756,0.382,0.3751,0.3751,0.375,0.375,0,0.4132,0.4132,0.4073,0.4069,0.4066,0.4022,0.402,0.3995,0.3966,0.3955,0.3914,0.3905,0.3854,0.3839,0.3808,0.38,0.3794,0.3777,0.3769,0.3781,0.3783,0.3772,0.3768,0.3752,0.3751,0.3751,0.3751,0,0.42,0.4161,0.415,0.4103,0.4091,0.4092,0.4051,0.4045,0.4016,0.4003,0.3997,0.3951,0.3931,0.389,0.3859,0.3839,0.3837,0.3823,0.3848,0.3843,0.3858,0.3857,0.3916,0.3921,0.385,0.3851,0.3851,0,0.4232,0.423,0.4183,0.4173,0.4153,0.4138,0.4124,0.408,0.4066,0.4029,0.4027,0.4004,0.3983,0.3953,0.3917,0.3893,0.3877,0.3899,0.3873,0.3884,0.3876,0.3876,0.3875,0.3905,0.3906,0.3907,0.3908,0,0.4292,0.4273,0.4254,0.4228,0.4212,0.419,0.4165,0.416,0.411,0.4097,0.4076,0.406,0.4028,0.4005,0.3975,0.3953,0.3922,0.3916,0.3918,0.3929,0.3943,0.3935,0.3863,0.3915,0.3914,0.3914,0.3913,0.3913,0.4341,0.4337,0.4303,0.4284,0.426,0.4238,0.423,0.4199,0.4181,0.4152,0.4127,0.4108,0.4075,0.4032,0.4012,0.3996,0.3981,0.3983,0.3984,0.3985,0.3989,0.3947,0.399,0.399,0.399,0.399,0.3989,0,0.4399,0.4374,0.4357,0.4323,0.4308,0.428,0.4251,0.424,0.4224,0.4196,0.4176,0.4152,0.4129,0.4091,0.4065,0.406,0.4045,0.4054,0.4054,0.4049,0.4005,0.4005,0.4067,0.4067,0.4067,0.4067,0.4067,0.4067,0.4426,0.4417,0.4394,0.4373,0.4349,0.433,0.4316,0.4295,0.4272,0.4247,0.4228,0.4203,0.4171,0.4142,0.412,0.4109,0.4101,0.4115,0.41,0.4059,0.4052,0.4045,0.4045,0.4114,0.4114,0.4145,0.4146,0.4146]}]]